Location: Waco, TX
(31.5480°N, 97.1670°W)
Time: 04:22:58

ISS - Pass Details

Date: 11 March 2018
Orbit: 403 x 406 km, 51.6° (Epoch: 23 March)

Event Time Altitude Azimuth Distance (km) Brightness Sun altitude
Rises 03:09:22 0° 266° (W) 2,319 - -54.9°
Reaches altitude 10° 03:12:14 10° 294° (WNW) 1,461 - -54.5°
Maximum altitude 03:14:01 14° 327° (NNW) 1,257 - -54.3°
Drops below altitude 10° 03:15:47 10° 360° (N) 1,464 - -54.0°
Sets 03:18:40 0° 27° (NNE) 2,326 - -53.6°
